Whiting Fld NAS, FL

8:34 PM CST on November 21, 2019 (GMT -0600)
Whiting Field Naval Air Station (North)

Weather History for KNSE - September, 2019

Change the Weather History Date:

Wednesday, September 4, 2019

  Actual Average Record
Temperature  
Mean Temperature 83 °F -  
Max Temperature 96 °F 86 °F 96 °F (2019)
Min Temperature 71 °F 69 °F 68 °F (1996)
Cooling Degree Days 18    
Growing Degree Days 33 (Base 50)    
Moisture  
Dew Point 70 °F    
Average Humidity 69    
Maximum Humidity 96    
Minimum Humidity 40    
Precipitation  
Precipitation 0.00 in - - ()
Sea Level Pressure  
Sea Level Pressure 29.91 in    
Wind  
Wind Speed 5 mph (NNW)    
Max Wind Speed 15 mph    
Max Gust Speed 21 mph    
Visibility 10 miles    
Events      
Averages and records for this station are not official NWS values.
T = Trace of Precipitation, MM = Missing Value Source: NWS Daily Summary

Daily Weather History Graph

Daily Weather History Graph

Search for Another Location

Airport or City:

Astronomy

Sep. 04, 2019 Rise Set
Actual Time 6:26 AM CDT 7:07 PM CDT
Civil Twilight 6:01 AM CDT 7:32 PM CDT
Nautical Twilight 5:32 AM CDT 8:00 PM CDT
Astronomical Twilight 5:03 AM CDT 8:30 PM CDT
Moon 12:03 PM CDT (9/4) 11:07 PM CDT (9/4)
Length of Visible Light 13h 30m
Length of Day
12h 41m
Waxing Crescent, 35% of the Moon is Illuminated
Sep 4
Waxing Crescent
Sep 5
First Quarter
Sep 13
Full
Sep 21
Last Quarter
Sep 28
New

Hourly Weather History & Observations

Time (CDT) Temp. Heat Index Dew Point Humidity Pressure Visibility Wind Dir Wind Speed Gust Speed Precip Events Conditions
12:56 AM 75.0 °F - 69.1 °F 82% 29.88 in 10.0 mi North 4.6 mph - N/A   Clear
1:56 AM 73.9 °F - 70.0 °F 87% 29.87 in 10.0 mi North 4.6 mph - N/A   Clear
2:56 AM 73.0 °F - 70.0 °F 90% 29.86 in 10.0 mi North 3.5 mph - N/A   Clear
3:56 AM 71.1 °F - 70.0 °F 96% 29.88 in 10.0 mi North 3.5 mph - N/A   Clear
4:56 AM 73.0 °F - 70.0 °F 90% 29.88 in 10.0 mi North 4.6 mph - N/A   Clear
5:56 AM 72.0 °F - 70.0 °F 93% 29.90 in 10.0 mi North 3.5 mph - N/A   Partly Cloudy
6:56 AM 71.1 °F - 70.0 °F 96% 29.92 in 10.0 mi Calm Calm - N/A   Partly Cloudy
7:56 AM 78.1 °F - 72.0 °F 81% 29.94 in 10.0 mi North 4.6 mph - N/A   Partly Cloudy
8:56 AM 82.9 °F 88.0 °F 72.0 °F 69% 29.94 in 10.0 mi Variable 4.6 mph - N/A   Partly Cloudy
9:56 AM 88.0 °F 94.7 °F 72.0 °F 59% 29.96 in 10.0 mi Calm Calm - N/A   Clear
10:56 AM 91.0 °F 96.6 °F 70.0 °F 50% 29.95 in 10.0 mi Variable 6.9 mph - N/A   Clear
11:56 AM 91.9 °F 97.4 °F 70.0 °F 48% 29.94 in 10.0 mi NNE 10.4 mph - N/A   Scattered Clouds
12:56 PM 93.0 °F 99.0 °F 70.0 °F 47% 29.93 in 10.0 mi NNE 10.4 mph - N/A   Scattered Clouds
1:56 PM 93.9 °F 97.5 °F 66.9 °F 41% 29.91 in 10.0 mi North 13.8 mph - N/A   Scattered Clouds
2:56 PM 95.0 °F 99.5 °F 68.0 °F 41% 29.88 in 10.0 mi NW 9.2 mph 20.7 mph N/A   Scattered Clouds
3:56 PM 95.0 °F 99.0 °F 66.9 °F 40% 29.88 in 10.0 mi North 10.4 mph - N/A   Scattered Clouds
4:56 PM 93.9 °F 99.1 °F 69.1 °F 44% 29.88 in 10.0 mi North 15.0 mph - N/A   Partly Cloudy
5:56 PM 91.9 °F 96.9 °F 69.1 °F 47% 29.89 in 10.0 mi North 10.4 mph - N/A   Partly Cloudy
6:56 PM 84.0 °F 89.6 °F 72.0 °F 67% 29.88 in 10.0 mi NNW 5.8 mph - N/A   Clear
7:56 PM 81.0 °F 84.9 °F 71.1 °F 72% 29.88 in 10.0 mi NW 4.6 mph - N/A   Clear
8:56 PM 79.0 °F - 71.1 °F 77% 29.90 in 10.0 mi NW 3.5 mph - N/A   Clear
9:56 PM 77.0 °F - 71.1 °F 82% 29.91 in 10.0 mi NW 3.5 mph - N/A   Clear
10:45 PM 80.1 °F 83.2 °F 70.0 °F 71% 29.97 in 10.0 mi NNW 4.6 mph - N/A   Clear
10:56 PM 78.1 °F - 70.0 °F 76% 29.92 in 10.0 mi NW 3.5 mph - N/A   Clear
11:56 PM 79.0 °F - 70.0 °F 74% 29.92 in 10.0 mi NW 3.5 mph - N/A   Clear